JLY1182 SBFI-SABE

Flight info

Callsign JLY1182
Flight time 1h 55m
Altitude 38000
Route ALDOS UL324 KUKEN DCT KILO1 DCT GOLF1 DCT FF13Y DCT BE920
Aircraft A20N/M-SDE2E3FGHIRWXY/LB1

Departure

Time 2026-04-26 19:27
Airport Cataratas International Airport (SBFI)

Arrival

Time 2026-04-26 21:22
Airport Aeroparque Jorge Newbery (SABE)
Time Latitude Longitude Altitude Speed Heading
2026-04-26 18:59 -25.59644 -54.48911 799 ft 0 kts 221°
2026-04-26 19:18 -25.59641 -54.48909 799 ft 3 kts 221°
2026-04-26 19:18 -25.59623 -54.48887 798 ft 4 kts 238°
2026-04-26 19:18 -25.59615 -54.48861 796 ft 4 kts 275°
2026-04-26 19:19 -25.59621 -54.48844 796 ft 1 kts 311°
2026-04-26 19:23 -25.59634 -54.48828 796 ft 1 kts 311°
2026-04-26 19:23 -25.59601 -54.48870 796 ft 11 kts 311°
2026-04-26 19:23 -25.59546 -54.48917 795 ft 12 kts 351°
2026-04-26 19:24 -25.59532 -54.48918 792 ft 0 kts 358°
2026-04-26 19:24 -25.59492 -54.48889 772 ft 1 kts 358°
2026-04-26 19:24 -25.59321 -54.49068 771 ft 27 kts 310°
2026-04-26 19:25 -25.59175 -54.49255 769 ft 27 kts 311°
2026-04-26 19:25 -25.59095 -54.49359 769 ft 22 kts 310°
2026-04-26 19:25 -25.58965 -54.49488 769 ft 17 kts 339°
2026-04-26 19:25 -25.58947 -54.49543 769 ft 5 kts 190°
2026-04-26 19:26 -25.58965 -54.49527 769 ft 8 kts 128°
2026-04-26 19:26 -25.59162 -54.49274 769 ft 87 kts 130°
2026-04-26 19:26 -25.59744 -54.48526 769 ft 167 kts 130°
2026-04-26 19:26 -25.60613 -54.47397 1147 ft 209 kts 133°
2026-04-26 19:27 -25.61527 -54.46221 2506 ft 195 kts 134°
2026-04-26 19:27 -25.62475 -54.45010 3207 ft 220 kts 134°
2026-04-26 19:27 -25.63512 -54.43679 4009 ft 232 kts 133°
2026-04-26 19:27 -25.64577 -54.42312 5083 ft 236 kts 133°
2026-04-26 19:28 -25.65661 -54.40920 6099 ft 241 kts 134°
2026-04-26 19:28 -25.66768 -54.39498 7102 ft 246 kts 134°
2026-04-26 19:28 -25.67905 -54.38036 7996 ft 253 kts 135°
2026-04-26 19:28 -25.69066 -54.36543 8904 ft 259 kts 135°
2026-04-26 19:29 -25.70260 -54.35008 9821 ft 265 kts 136°
2026-04-26 19:29 -25.71497 -54.33467 10591 ft 272 kts 143°
2026-04-26 19:29 -25.73128 -54.32397 11121 ft 276 kts 171°
2026-04-26 19:29 -25.75038 -54.32267 11648 ft 279 kts 198°
2026-04-26 19:30 -25.76811 -54.33121 12175 ft 283 kts 223°
2026-04-26 19:30 -25.78131 -54.34778 12647 ft 294 kts 244°
2026-04-26 19:30 -25.78874 -54.36938 13148 ft 308 kts 255°
2026-04-26 19:30 -25.79433 -54.38415 13504 ft 321 kts 243°
2026-04-26 19:31 -25.81526 -54.40827 14515 ft 339 kts 219°
2026-04-26 19:31 -25.83554 -54.42212 15247 ft 345 kts 218°
2026-04-26 19:31 -25.85616 -54.43616 15948 ft 350 kts 218°
2026-04-26 19:31 -25.87706 -54.45031 16661 ft 354 kts 218°
2026-04-26 19:32 -25.89827 -54.46461 17322 ft 359 kts 218°
2026-04-26 19:32 -25.91977 -54.47908 18013 ft 364 kts 218°
2026-04-26 19:32 -25.94154 -54.49374 18597 ft 368 kts 218°
2026-04-26 19:32 -25.96360 -54.50860 19161 ft 372 kts 219°
2026-04-26 19:33 -25.98580 -54.52356 19721 ft 375 kts 219°
2026-04-26 19:33 -26.00815 -54.53862 20284 ft 378 kts 219°
2026-04-26 19:33 -26.03074 -54.55385 20849 ft 380 kts 219°
2026-04-26 19:33 -26.05340 -54.56914 21403 ft 383 kts 219°
2026-04-26 19:34 -26.07628 -54.58459 22010 ft 384 kts 220°
2026-04-26 19:34 -26.09916 -54.60004 22622 ft 385 kts 220°
2026-04-26 19:34 -26.12214 -54.61556 23154 ft 388 kts 220°
2026-04-26 19:34 -26.14498 -54.63099 23644 ft 390 kts 220°
2026-04-26 19:35 -26.16828 -54.64674 24079 ft 393 kts 220°
2026-04-26 19:35 -26.19169 -54.66258 24502 ft 395 kts 220°
2026-04-26 19:35 -26.21525 -54.67853 24930 ft 397 kts 220°
2026-04-26 19:35 -26.24037 -54.69239 25352 ft 413 kts 208°
2026-04-26 19:36 -26.26779 -54.70237 25840 ft 414 kts 208°
2026-04-26 19:36 -26.27701 -54.70588 25958 ft 416 kts 208°
2026-04-26 19:36 -26.32289 -54.72312 26623 ft 421 kts 208°
2026-04-26 19:36 -26.35074 -54.73350 27030 ft 423 kts 208°
2026-04-26 19:37 -26.37877 -54.74392 27425 ft 426 kts 208°
2026-04-26 19:37 -26.40697 -54.75441 27821 ft 429 kts 208°
2026-04-26 19:37 -26.43538 -54.76498 28173 ft 432 kts 208°
2026-04-26 19:37 -26.46399 -54.77563 28533 ft 435 kts 208°
2026-04-26 19:38 -26.49281 -54.78637 28915 ft 438 kts 208°
2026-04-26 19:38 -26.52177 -54.79716 29258 ft 440 kts 208°
2026-04-26 19:38 -26.55092 -54.80803 29622 ft 443 kts 208°
2026-04-26 19:38 -26.57957 -54.81935 29947 ft 443 kts 210°
2026-04-26 19:39 -26.60856 -54.83139 30220 ft 446 kts 210°
2026-04-26 19:39 -26.63770 -54.84339 30549 ft 448 kts 210°
2026-04-26 19:39 -26.66706 -54.85546 30827 ft 451 kts 210°
2026-04-26 19:39 -26.69660 -54.86759 31119 ft 453 kts 210°
2026-04-26 19:40 -26.72629 -54.87979 31432 ft 455 kts 210°
2026-04-26 19:40 -26.75609 -54.89204 31719 ft 457 kts 210°
2026-04-26 19:40 -26.78605 -54.90437 32027 ft 459 kts 210°
2026-04-26 19:40 -26.81609 -54.91674 32348 ft 461 kts 210°
2026-04-26 19:41 -26.84617 -54.92912 32765 ft 460 kts 210°
2026-04-26 19:41 -26.86607 -54.93733 33056 ft 459 kts 211°
2026-04-26 19:41 -26.89598 -54.94965 33501 ft 458 kts 211°
2026-04-26 19:41 -26.91581 -54.95784 33797 ft 458 kts 211°
2026-04-26 19:42 -26.95576 -54.97432 33913 ft 455 kts 211°
2026-04-26 19:42 -26.98534 -54.98654 33909 ft 453 kts 211°
2026-04-26 19:42 -27.04442 -55.01096 33922 ft 452 kts 211°
2026-04-26 19:43 -27.10333 -55.03534 33906 ft 451 kts 211°
2026-04-26 19:43 -27.16223 -55.05973 33901 ft 451 kts 211°
2026-04-26 19:44 -27.22116 -55.08418 33927 ft 451 kts 212°
2026-04-26 19:44 -27.27985 -55.10854 33901 ft 449 kts 212°
2026-04-26 19:45 -27.33846 -55.13290 33906 ft 450 kts 212°
2026-04-26 19:45 -27.39718 -55.15734 33915 ft 450 kts 212°
2026-04-26 19:46 -27.45588 -55.18179 33899 ft 450 kts 212°
2026-04-26 19:46 -27.51458 -55.20628 33923 ft 447 kts 212°
2026-04-26 19:47 -27.56308 -55.22652 33917 ft 447 kts 213°
2026-04-26 19:47 -27.63089 -55.25486 33919 ft 447 kts 212°
2026-04-26 19:48 -27.68924 -55.27929 33922 ft 446 kts 213°
2026-04-26 19:48 -27.74731 -55.30361 33914 ft 445 kts 213°
2026-04-26 19:49 -27.80524 -55.32791 33918 ft 442 kts 213°
2026-04-26 19:49 -27.86287 -55.35211 33917 ft 442 kts 213°
2026-04-26 19:50 -27.92060 -55.37638 33917 ft 442 kts 213°
2026-04-26 19:50 -27.97826 -55.40065 33919 ft 442 kts 213°
2026-04-26 19:51 -28.03591 -55.42494 33966 ft 442 kts 213°
2026-04-26 19:51 -28.09338 -55.44920 33912 ft 439 kts 214°
2026-04-26 19:52 -28.15054 -55.47370 33914 ft 439 kts 214°
2026-04-26 19:52 -28.20738 -55.49805 33913 ft 439 kts 214°
2026-04-26 19:53 -28.26453 -55.52257 33914 ft 440 kts 214°
2026-04-26 19:53 -28.32169 -55.54712 33967 ft 438 kts 214°
2026-04-26 19:54 -28.37860 -55.57159 33909 ft 436 kts 215°
2026-04-26 19:54 -28.43543 -55.59604 33917 ft 437 kts 215°
2026-04-26 19:55 -28.49230 -55.62052 33913 ft 437 kts 215°
2026-04-26 19:55 -28.54915 -55.64505 33915 ft 437 kts 215°
2026-04-26 19:56 -28.60588 -55.66988 33975 ft 436 kts 216°
2026-04-26 19:56 -28.66238 -55.69462 33908 ft 434 kts 216°
2026-04-26 19:57 -28.71880 -55.71934 33912 ft 435 kts 216°
2026-04-26 19:57 -28.77530 -55.74413 33909 ft 435 kts 216°
2026-04-26 19:58 -28.83178 -55.76894 33912 ft 435 kts 216°
2026-04-26 19:58 -28.88824 -55.79379 33961 ft 434 kts 216°
2026-04-26 19:59 -28.94441 -55.81851 33909 ft 432 kts 216°
2026-04-26 19:59 -29.00017 -55.84309 33909 ft 432 kts 216°
2026-04-26 20:00 -29.05631 -55.86787 33915 ft 432 kts 216°
2026-04-26 20:00 -29.11241 -55.89266 33908 ft 432 kts 216°
2026-04-26 20:01 -29.16854 -55.91749 33910 ft 432 kts 216°
2026-04-26 20:01 -29.22465 -55.94235 33908 ft 432 kts 216°
2026-04-26 20:02 -29.28070 -55.96720 33912 ft 432 kts 216°
2026-04-26 20:02 -29.32735 -55.98791 33911 ft 432 kts 216°
2026-04-26 20:03 -29.39290 -56.01704 33905 ft 432 kts 216°
2026-04-26 20:03 -29.44864 -56.04185 33957 ft 432 kts 217°
2026-04-26 20:04 -29.50452 -56.06674 33911 ft 431 kts 217°
2026-04-26 20:04 -29.56044 -56.09169 33911 ft 431 kts 217°
2026-04-26 20:05 -29.61643 -56.11669 33920 ft 431 kts 217°
2026-04-26 20:05 -29.67232 -56.14168 33912 ft 431 kts 217°
2026-04-26 20:06 -29.72822 -56.16671 33923 ft 432 kts 217°
2026-04-26 20:06 -29.78420 -56.19180 33913 ft 432 kts 217°
2026-04-26 20:07 -29.84019 -56.21692 33913 ft 432 kts 217°
2026-04-26 20:07 -29.89619 -56.24209 33913 ft 432 kts 217°
2026-04-26 20:08 -29.95215 -56.26726 33917 ft 432 kts 217°
2026-04-26 20:08 -30.00812 -56.29247 33939 ft 432 kts 217°
2026-04-26 20:09 -30.06417 -56.31774 33924 ft 432 kts 217°
2026-04-26 20:09 -30.12020 -56.34303 33909 ft 432 kts 217°
2026-04-26 20:10 -30.17625 -56.36837 33913 ft 432 kts 217°
2026-04-26 20:10 -30.23193 -56.39357 33908 ft 432 kts 217°
2026-04-26 20:11 -30.28836 -56.41913 33925 ft 432 kts 217°
2026-04-26 20:12 -30.37189 -56.45703 33917 ft 432 kts 217°
2026-04-26 20:12 -30.42860 -56.48134 33910 ft 434 kts 216°
2026-04-26 20:13 -30.48532 -56.50561 33919 ft 434 kts 216°
2026-04-26 20:13 -30.54203 -56.52991 33949 ft 434 kts 216°
2026-04-26 20:14 -30.59865 -56.55423 33921 ft 433 kts 216°
2026-04-26 20:14 -30.65523 -56.57855 33950 ft 434 kts 216°
2026-04-26 20:15 -30.71166 -56.60302 33917 ft 431 kts 217°
2026-04-26 20:15 -30.76770 -56.62811 33915 ft 432 kts 216°
2026-04-26 20:16 -30.82375 -56.65314 33931 ft 431 kts 216°
2026-04-26 20:16 -30.87929 -56.67797 33922 ft 431 kts 216°
2026-04-26 20:17 -30.93526 -56.70296 33914 ft 431 kts 216°
2026-04-26 20:17 -30.99121 -56.72797 33915 ft 430 kts 216°
2026-04-26 20:18 -31.04716 -56.75300 33924 ft 430 kts 216°
2026-04-26 20:18 -31.10296 -56.77800 33948 ft 428 kts 216°
2026-04-26 20:19 -31.15854 -56.80294 33928 ft 428 kts 216°
2026-04-26 20:19 -31.21431 -56.82800 33929 ft 428 kts 216°
2026-04-26 20:20 -31.27000 -56.85303 33934 ft 428 kts 216°
2026-04-26 20:20 -31.32544 -56.87801 33982 ft 427 kts 216°
2026-04-26 20:21 -31.38080 -56.90298 33932 ft 426 kts 215°
2026-04-26 20:21 -31.43609 -56.92794 33929 ft 426 kts 215°
2026-04-26 20:22 -31.49142 -56.95295 33933 ft 426 kts 215°
2026-04-26 20:22 -31.54679 -56.97802 33933 ft 426 kts 215°
2026-04-26 20:23 -31.60171 -57.00291 33992 ft 426 kts 215°
2026-04-26 20:23 -31.65706 -57.02803 33927 ft 426 kts 215°
2026-04-26 20:24 -31.71245 -57.05319 33934 ft 427 kts 215°
2026-04-26 20:24 -31.76789 -57.07841 33935 ft 427 kts 215°
2026-04-26 20:25 -31.82271 -57.10450 33931 ft 425 kts 216°
2026-04-26 20:25 -31.87748 -57.13077 33930 ft 425 kts 216°
2026-04-26 20:26 -31.93249 -57.15647 33931 ft 426 kts 215°
2026-04-26 20:26 -31.97845 -57.17752 33932 ft 426 kts 215°
2026-04-26 20:27 -32.04299 -57.20720 33929 ft 426 kts 215°
2026-04-26 20:27 -32.08888 -57.22833 33926 ft 426 kts 215°
2026-04-26 20:28 -32.14411 -57.25379 33965 ft 426 kts 215°
2026-04-26 20:28 -32.19933 -57.27928 33929 ft 426 kts 214°
2026-04-26 20:29 -32.25460 -57.30483 33917 ft 427 kts 214°
2026-04-26 20:29 -32.30985 -57.33041 33921 ft 426 kts 214°
2026-04-26 20:30 -32.36513 -57.35603 33915 ft 426 kts 215°
2026-04-26 20:30 -32.42036 -57.38165 33957 ft 426 kts 214°
2026-04-26 20:31 -32.47534 -57.40720 33914 ft 423 kts 214°
2026-04-26 20:31 -32.53023 -57.43274 33913 ft 423 kts 214°
2026-04-26 20:32 -32.58511 -57.45831 33908 ft 423 kts 214°
2026-04-26 20:32 -32.64000 -57.48392 33906 ft 423 kts 214°
2026-04-26 20:33 -32.69427 -57.50926 33950 ft 419 kts 214°
2026-04-26 20:33 -32.74835 -57.53456 33913 ft 417 kts 214°
2026-04-26 20:34 -32.80241 -57.55988 33908 ft 418 kts 214°
2026-04-26 20:34 -32.85645 -57.58522 33908 ft 418 kts 214°
2026-04-26 20:35 -32.91050 -57.61059 33886 ft 414 kts 214°
2026-04-26 20:35 -32.93709 -57.62309 33159 ft 412 kts 214°
2026-04-26 20:35 -32.96384 -57.63567 32316 ft 413 kts 214°
2026-04-26 20:35 -32.99061 -57.64828 31498 ft 414 kts 214°
2026-04-26 20:36 -33.01749 -57.66093 30691 ft 415 kts 213°
2026-04-26 20:36 -33.04440 -57.67362 29815 ft 417 kts 213°
2026-04-26 20:36 -33.07146 -57.68637 28828 ft 419 kts 213°
2026-04-26 20:36 -33.09817 -57.69898 28069 ft 416 kts 213°
2026-04-26 20:37 -33.12492 -57.71161 27412 ft 411 kts 213°
2026-04-26 20:37 -33.15139 -57.72412 26773 ft 406 kts 213°
2026-04-26 20:37 -33.17744 -57.73643 26323 ft 398 kts 213°
2026-04-26 20:37 -33.20283 -57.74842 26067 ft 387 kts 213°
2026-04-26 20:38 -33.22755 -57.76013 25733 ft 377 kts 214°
2026-04-26 20:38 -33.25157 -57.77151 25415 ft 368 kts 214°
2026-04-26 20:38 -33.27573 -57.78301 25090 ft 379 kts 213°
2026-04-26 20:38 -33.30042 -57.79471 24753 ft 383 kts 213°
2026-04-26 20:39 -33.32529 -57.80650 24448 ft 384 kts 213°
2026-04-26 20:39 -33.35005 -57.81825 24147 ft 382 kts 213°
2026-04-26 20:39 -33.37469 -57.82996 23835 ft 380 kts 213°
2026-04-26 20:39 -33.39918 -57.84160 23535 ft 378 kts 213°
2026-04-26 20:40 -33.42361 -57.85321 23194 ft 376 kts 213°
2026-04-26 20:40 -33.44786 -57.86476 22891 ft 374 kts 213°
2026-04-26 20:40 -33.47197 -57.87624 22546 ft 372 kts 213°
2026-04-26 20:40 -33.49560 -57.88750 22213 ft 370 kts 214°
2026-04-26 20:41 -33.51945 -57.89885 21877 ft 368 kts 214°
2026-04-26 20:41 -33.54319 -57.91017 21548 ft 366 kts 214°
2026-04-26 20:41 -33.56675 -57.92140 21224 ft 364 kts 214°
2026-04-26 20:41 -33.59021 -57.93258 20916 ft 362 kts 214°
2026-04-26 20:42 -33.61348 -57.94368 20604 ft 359 kts 214°
2026-04-26 20:42 -33.63659 -57.95471 20291 ft 357 kts 214°
2026-04-26 20:42 -33.65959 -57.96569 19997 ft 355 kts 214°
2026-04-26 20:42 -33.68255 -57.97666 19699 ft 353 kts 214°
2026-04-26 20:43 -33.70533 -57.98755 19470 ft 352 kts 214°
2026-04-26 20:43 -33.72792 -57.99835 19183 ft 347 kts 214°
2026-04-26 20:43 -33.75024 -58.00903 18904 ft 343 kts 214°
2026-04-26 20:43 -33.77234 -58.01962 18616 ft 341 kts 214°
2026-04-26 20:44 -33.79438 -58.03018 18353 ft 339 kts 214°
2026-04-26 20:44 -33.81625 -58.04066 18070 ft 338 kts 214°
2026-04-26 20:44 -33.83802 -58.05109 17763 ft 336 kts 214°
2026-04-26 20:44 -33.85966 -58.06148 17453 ft 334 kts 214°
2026-04-26 20:45 -33.88119 -58.07182 17153 ft 332 kts 214°
2026-04-26 20:45 -33.90234 -58.08197 16861 ft 331 kts 214°
2026-04-26 20:45 -33.92367 -58.09223 16563 ft 329 kts 214°
2026-04-26 20:45 -33.94483 -58.10240 16279 ft 327 kts 214°
2026-04-26 20:46 -33.96596 -58.11257 16058 ft 326 kts 214°
2026-04-26 20:46 -33.98694 -58.12266 15773 ft 324 kts 213°
2026-04-26 20:46 -34.00784 -58.13273 15493 ft 323 kts 213°
2026-04-26 20:46 -34.02865 -58.14276 15198 ft 322 kts 213°
2026-04-26 20:47 -34.04946 -58.15280 14944 ft 322 kts 212°
2026-04-26 20:47 -34.06322 -58.15943 14763 ft 321 kts 212°
2026-04-26 20:47 -34.09096 -58.17282 14409 ft 320 kts 212°
2026-04-26 20:47 -34.11161 -58.18279 14149 ft 319 kts 212°
2026-04-26 20:48 -34.13219 -58.19273 13888 ft 319 kts 211°
2026-04-26 20:48 -34.15356 -58.20075 13604 ft 331 kts 199°
2026-04-26 20:48 -34.17728 -58.19959 13285 ft 354 kts 178°
2026-04-26 20:48 -34.20045 -58.18710 12947 ft 381 kts 154°
2026-04-26 20:49 -34.21898 -58.16319 12633 ft 400 kts 130°
2026-04-26 20:49 -34.23418 -58.13532 12292 ft 393 kts 131°
2026-04-26 20:49 -34.24983 -58.10847 11953 ft 388 kts 132°
2026-04-26 20:49 -34.26554 -58.08208 11607 ft 385 kts 132°
2026-04-26 20:50 -34.28121 -58.05602 11269 ft 381 kts 133°
2026-04-26 20:50 -34.29672 -58.03038 10939 ft 374 kts 133°
2026-04-26 20:50 -34.31192 -58.00533 10628 ft 367 kts 133°
2026-04-26 20:50 -34.32671 -57.98096 10324 ft 360 kts 132°
2026-04-26 20:51 -34.34138 -57.95680 10031 ft 353 kts 133°
2026-04-26 20:51 -34.35595 -57.93277 9723 ft 347 kts 133°
2026-04-26 20:51 -34.36992 -57.90972 9410 ft 341 kts 132°
2026-04-26 20:51 -34.38383 -57.88677 9105 ft 335 kts 132°
2026-04-26 20:52 -34.39748 -57.86424 8777 ft 330 kts 132°
2026-04-26 20:52 -34.41098 -57.84193 8500 ft 325 kts 132°
2026-04-26 20:52 -34.42434 -57.82008 8210 ft 318 kts 136°
2026-04-26 20:52 -34.44099 -57.80426 7882 ft 294 kts 166°
2026-04-26 20:53 -34.46021 -57.80048 7566 ft 271 kts 191°
2026-04-26 20:53 -34.47828 -57.80423 7324 ft 260 kts 199°
2026-04-26 20:53 -34.49613 -57.80746 7089 ft 257 kts 195°
2026-04-26 20:53 -34.51362 -57.81045 6848 ft 252 kts 195°
2026-04-26 20:54 -34.53069 -57.81350 6619 ft 242 kts 196°
2026-04-26 20:54 -34.54688 -57.81651 6409 ft 229 kts 197°
2026-04-26 20:54 -34.56217 -57.81941 6204 ft 216 kts 197°
2026-04-26 20:54 -34.57704 -57.82229 6012 ft 222 kts 197°
2026-04-26 20:55 -34.59266 -57.82526 5789 ft 230 kts 196°
2026-04-26 20:55 -34.60865 -57.82825 5590 ft 233 kts 196°
2026-04-26 20:55 -34.62449 -57.83123 5381 ft 233 kts 197°
2026-04-26 20:55 -34.64071 -57.83430 5150 ft 232 kts 197°
2026-04-26 20:56 -34.65643 -57.83729 4963 ft 231 kts 197°
2026-04-26 20:56 -34.67221 -57.84030 4883 ft 229 kts 197°
2026-04-26 20:56 -34.68789 -57.84328 4881 ft 228 kts 197°
2026-04-26 20:56 -34.70360 -57.84628 4883 ft 228 kts 197°
2026-04-26 20:57 -34.71928 -57.84926 4892 ft 228 kts 197°
2026-04-26 20:57 -34.73486 -57.85255 4874 ft 224 kts 204°
2026-04-26 20:57 -34.74712 -57.86245 4770 ft 209 kts 233°
2026-04-26 20:57 -34.75445 -57.87766 4703 ft 208 kts 247°
2026-04-26 20:58 -34.75790 -57.89426 4418 ft 204 kts 262°
2026-04-26 20:58 -34.75649 -57.91115 4163 ft 200 kts 281°
2026-04-26 20:58 -34.75178 -57.92663 3930 ft 189 kts 281°
2026-04-26 20:58 -34.74769 -57.94160 3705 ft 180 kts 282°
2026-04-26 20:59 -34.74367 -57.95564 3602 ft 171 kts 282°
2026-04-26 20:59 -34.73983 -57.96877 3517 ft 162 kts 282°
2026-04-26 20:59 -34.73607 -57.98141 3346 ft 158 kts 282°
2026-04-26 20:59 -34.73232 -57.99401 3085 ft 158 kts 282°
2026-04-26 21:00 -34.72857 -58.00654 2834 ft 158 kts 282°
2026-04-26 21:00 -34.72476 -58.01922 2608 ft 157 kts 282°
2026-04-26 21:00 -34.72104 -58.03157 2485 ft 160 kts 282°
2026-04-26 21:00 -34.71720 -58.04415 2529 ft 158 kts 282°
2026-04-26 21:01 -34.71336 -58.05669 2500 ft 158 kts 282°
2026-04-26 21:01 -34.70954 -58.06919 2475 ft 158 kts 282°
2026-04-26 21:01 -34.70574 -58.08168 2471 ft 157 kts 282°
2026-04-26 21:01 -34.70195 -58.09418 2480 ft 158 kts 282°
2026-04-26 21:02 -34.69815 -58.10669 2482 ft 158 kts 282°
2026-04-26 21:02 -34.69437 -58.11916 2484 ft 156 kts 281°
2026-04-26 21:02 -34.69060 -58.13150 2479 ft 155 kts 282°
2026-04-26 21:02 -34.68688 -58.14375 2473 ft 155 kts 282°
2026-04-26 21:03 -34.68317 -58.15602 2468 ft 155 kts 282°
2026-04-26 21:03 -34.67943 -58.16832 2477 ft 155 kts 282°
2026-04-26 21:03 -34.67568 -58.18064 2480 ft 156 kts 282°
2026-04-26 21:03 -34.67191 -58.19301 2480 ft 156 kts 282°
2026-04-26 21:04 -34.66814 -58.20541 2507 ft 156 kts 282°
2026-04-26 21:04 -34.66458 -58.21696 2520 ft 137 kts 281°
2026-04-26 21:04 -34.66148 -58.22706 2416 ft 122 kts 279°
2026-04-26 21:04 -34.65848 -58.23651 2366 ft 122 kts 285°
2026-04-26 21:05 -34.65397 -58.24533 2427 ft 123 kts 290°
2026-04-26 21:05 -34.64922 -58.25405 2418 ft 124 kts 291°
2026-04-26 21:05 -34.64443 -58.26269 2350 ft 123 kts 291°
2026-04-26 21:05 -34.63967 -58.27127 2345 ft 123 kts 291°
2026-04-26 21:06 -34.63490 -58.27985 2306 ft 122 kts 291°
2026-04-26 21:06 -34.63014 -58.28842 2231 ft 122 kts 291°
2026-04-26 21:06 -34.62538 -58.29700 2136 ft 123 kts 291°
2026-04-26 21:06 -34.62057 -58.30565 2052 ft 124 kts 291°
2026-04-26 21:07 -34.61574 -58.31433 1884 ft 124 kts 291°
2026-04-26 21:07 -34.61091 -58.32301 1733 ft 124 kts 291°
2026-04-26 21:07 -34.60597 -58.33166 1620 ft 127 kts 296°
2026-04-26 21:07 -34.60022 -58.33984 1300 ft 126 kts 296°
2026-04-26 21:08 -34.59498 -58.34809 1043 ft 121 kts 291°
2026-04-26 21:08 -34.59055 -58.35660 831 ft 118 kts 289°
2026-04-26 21:08 -34.58642 -58.36545 657 ft 123 kts 291°
2026-04-26 21:08 -34.58191 -58.37439 523 ft 124 kts 294°
2026-04-26 21:09 -34.57724 -58.38332 413 ft 127 kts 299°
2026-04-26 21:09 -34.57226 -58.39231 336 ft 128 kts 297°
2026-04-26 21:09 -34.56727 -58.40127 180 ft 128 kts 298°
2026-04-26 21:09 -34.56208 -58.41052 42 ft 137 kts 297°
2026-04-26 21:10 -34.55770 -58.41887 25 ft 109 kts 303°
2026-04-26 21:10 -34.55178 -58.42776 286 ft 156 kts 303°
2026-04-26 21:10 -34.54421 -58.43918 956 ft 181 kts 300°
2026-04-26 21:10 -34.53459 -58.44801 1673 ft 172 kts 338°
2026-04-26 21:11 -34.52312 -58.44588 1805 ft 175 kts 22°
2026-04-26 21:11 -34.51519 -58.43491 1722 ft 177 kts 79°
2026-04-26 21:11 -34.51601 -58.42110 1735 ft 157 kts 126°
2026-04-26 21:11 -34.52121 -58.40972 2262 ft 159 kts 128°
2026-04-26 21:12 -34.52591 -58.39695 2734 ft 172 kts 123°
2026-04-26 21:12 -34.53064 -58.38291 3076 ft 188 kts 121°
2026-04-26 21:12 -34.53565 -58.36750 3100 ft 204 kts 120°
2026-04-26 21:12 -34.54091 -58.35078 3074 ft 220 kts 119°
2026-04-26 21:13 -34.54644 -58.33265 3023 ft 238 kts 117°
2026-04-26 21:13 -34.55221 -58.31320 3017 ft 251 kts 117°
2026-04-26 21:13 -34.55613 -58.29983 3021 ft 255 kts 117°
2026-04-26 21:13 -34.56217 -58.27938 3012 ft 259 kts 116°
2026-04-26 21:14 -34.56805 -58.25955 3014 ft 244 kts 117°
2026-04-26 21:14 -34.57380 -58.24033 2914 ft 242 kts 117°
2026-04-26 21:14 -34.57948 -58.22125 2885 ft 239 kts 117°
2026-04-26 21:14 -34.58516 -58.20217 2977 ft 240 kts 117°
2026-04-26 21:15 -34.59083 -58.18308 3018 ft 242 kts 118°
2026-04-26 21:15 -34.59576 -58.16331 3015 ft 251 kts 111°
2026-04-26 21:15 -34.60307 -58.14427 2971 ft 247 kts 143°
2026-04-26 21:15 -34.61746 -58.13453 2978 ft 233 kts 180°
2026-04-26 21:16 -34.63244 -58.13756 2982 ft 218 kts 216°
2026-04-26 21:16 -34.64215 -58.15111 3007 ft 217 kts 245°
2026-04-26 21:16 -34.64631 -58.16924 3009 ft 223 kts 256°
2026-04-26 21:16 -34.64830 -58.18797 3006 ft 223 kts 258°
2026-04-26 21:17 -34.65168 -58.20594 2989 ft 213 kts 254°
2026-04-26 21:17 -34.65484 -58.22267 3003 ft 199 kts 255°
2026-04-26 21:17 -34.65563 -58.23885 3010 ft 191 kts 278°
2026-04-26 21:17 -34.64958 -58.25241 3121 ft 173 kts 294°
2026-04-26 21:18 -34.64339 -58.26367 2996 ft 152 kts 291°
2026-04-26 21:18 -34.63804 -58.27389 2745 ft 134 kts 290°
2026-04-26 21:18 -34.63316 -58.28292 2555 ft 125 kts 290°
2026-04-26 21:18 -34.62828 -58.29172 2396 ft 124 kts 290°
2026-04-26 21:19 -34.62354 -58.30027 2245 ft 123 kts 291°
2026-04-26 21:19 -34.61874 -58.30891 2084 ft 122 kts 291°
2026-04-26 21:19 -34.61401 -58.31742 1841 ft 122 kts 291°
2026-04-26 21:19 -34.60934 -58.32581 1673 ft 122 kts 291°
2026-04-26 21:20 -34.60408 -58.33417 1459 ft 127 kts 297°
2026-04-26 21:20 -34.59862 -58.34243 1169 ft 123 kts 293°
2026-04-26 21:20 -34.59389 -58.35083 952 ft 119 kts 290°
2026-04-26 21:20 -34.58962 -58.35953 741 ft 121 kts 290°
2026-04-26 21:21 -34.58519 -58.36851 633 ft 126 kts 294°
2026-04-26 21:21 -34.58031 -58.37743 511 ft 126 kts 295°
2026-04-26 21:21 -34.57540 -58.38618 375 ft 125 kts 297°
2026-04-26 21:21 -34.57064 -58.39506 267 ft 126 kts 296°
2026-04-26 21:22 -34.56567 -58.40382 111 ft 126 kts 296°
2026-04-26 21:22 -34.56085 -58.41289 26 ft 122 kts 303°
2026-04-26 21:22 -34.55780 -58.41831 24 ft 36 kts 303°
2026-04-26 21:23 -34.55697 -58.41911 24 ft 1 kts 44°
2026-04-26 21:23 -34.55686 -58.41897 26 ft 0 kts 44°
2026-04-26 21:23 -34.55683 -58.41893 26 ft 0 kts 45°
2026-04-26 21:23 -34.55680 -58.41888 26 ft 0 kts 54°
2026-04-26 21:24 -34.55677 -58.41875 25 ft 5 kts 80°
2026-04-26 21:24 -34.55694 -58.41824 27 ft 10 kts 123°
2026-04-26 21:24 -34.55722 -58.41772 27 ft 7 kts 120°
2026-04-26 21:24 -34.55759 -58.41685 25 ft 15 kts 117°
2026-04-26 21:25 -34.55814 -58.41553 26 ft 20 kts 117°
2026-04-26 21:25 -34.55837 -58.41434 25 ft 10 kts 65°